Weather History for St. Joseph, MO

Change the Weather History Date:

Monday, July 21, 2014

  Actual Average Record
Temperature  
Mean Temperature 82 °F 77 °F  
Max Temperature 92 °F 87 °F 106 °F (1934)
Min Temperature 71 °F 67 °F 50 °F (1970)
Degree Days  
Heating Degree Days 0 0  
Month to date heating degree days 6 0  
Since 1 June heating degree days 7 8  
Since 1 July heating degree days 6 0  
Cooling Degree Days 17 12  
Month to date cooling degree days 162 250  
Year to date cooling degree days 602 630  
Since 1 June cooling degree days 441 517  
Growing Degree Days 31 (Base 50)    
Moisture  
Dew Point 72 °F    
Average Humidity 77    
Maximum Humidity 90    
Minimum Humidity 63    
Precipitation  
Precipitation 0.00 in 0.17 in 3.50 in (1990)
Month to date precipitation 4.41 3.40  
Year to date precipitation 20.09 20.53  
Sea Level Pressure  
Sea Level Pressure 29.92 in    
Wind  
Wind Speed 12 mph (South)    
Max Wind Speed 20 mph    
Max Gust Speed 31 mph    
Visibility 10 miles    
Events      
T = Trace of Precipitation, MM = Missing Value Source: NWS Daily Summary

Daily Weather History Graph

Daily Weather History Graph

Search for Another Location

Airport:

Trip Planner

Search our weather history database for the weather conditions in past years. The results will help you decide how hot, cold, wet, or windy it might be!

Date:

Astronomy

Jul. 21, 2014 Rise Set
Actual Time 6:08 AM CDT 8:42 PM CDT
Civil Twilight 5:37 AM CDT 9:13 PM CDT
Nautical Twilight 4:58 AM CDT 9:52 PM CDT
Astronomical Twilight 4:15 AM CDT 10:35 PM CDT
Moon 2:00 AM CDT (7/21) 4:26 PM CDT (7/21)
Length of Visible Light 15h 36m
Length of Day
14h 33m
Waning Crescent, 24% of the Moon is Illuminated
Jul 21
Waning Crescent
Jul 26
New
Aug 3
First Quarter
Aug 10
Full
Aug 17
Last Quarter

Hourly Weather History & Observations

Time (CDT) Temp. Heat Index Dew Point Humidity Pressure Visibility Wind Dir Wind Speed Gust Speed Precip Events Conditions
12:53 AM 73.0 °F - 66.0 °F 79% 29.92 in 10.0 mi SSE 9.2 mph - N/A   Clear
1:53 AM 72.0 °F - 66.0 °F 81% 29.91 in 10.0 mi SSE 5.8 mph - N/A   Clear
2:53 AM 71.1 °F - 66.0 °F 84% 29.91 in 10.0 mi SSE 6.9 mph - N/A   Clear
3:53 AM 72.0 °F - 66.9 °F 84% 29.91 in 10.0 mi SSE 8.1 mph - N/A   Clear
4:53 AM 72.0 °F - 66.9 °F 84% 29.91 in 10.0 mi South 9.2 mph - N/A   Clear
5:53 AM 72.0 °F - 68.0 °F 87% 29.92 in 10.0 mi South 9.2 mph - N/A   Clear
6:53 AM 73.0 °F - 68.0 °F 84% 29.93 in 9.0 mi South 10.4 mph - N/A   Clear
7:53 AM 73.9 °F - 69.1 °F 85% 29.94 in 9.0 mi South 11.5 mph - N/A   Clear
8:53 AM 75.9 °F - 70.0 °F 82% 29.94 in 9.0 mi SSW 15.0 mph - N/A   Clear
9:53 AM 80.1 °F 83.8 °F 72.0 °F 76% 29.94 in 9.0 mi South 11.5 mph - N/A   Clear
10:43 AM 82.0 °F 87.4 °F 73.0 °F 74% 29.96 in 10.0 mi South 13.8 mph - N/A   Partly Cloudy
10:53 AM 82.0 °F 87.4 °F 73.0 °F 74% 29.94 in 10.0 mi South 13.8 mph 21.9 mph N/A   Partly Cloudy
11:53 AM 84.9 °F 93.3 °F 75.0 °F 72% 29.93 in 10.0 mi South 13.8 mph 23.0 mph N/A   Clear
12:53 PM 87.1 °F 96.3 °F 75.0 °F 67% 29.93 in 10.0 mi South 17.3 mph 21.9 mph N/A   Clear
1:53 PM 89.1 °F 100.2 °F 75.9 °F 65% 29.92 in 10.0 mi South 16.1 mph - N/A   Clear
2:53 PM 90.0 °F 101.3 °F 75.9 °F 63% 29.91 in 10.0 mi South 17.3 mph - N/A   Clear
3:53 PM 91.0 °F 104.2 °F 77.0 °F 63% 29.90 in 10.0 mi South 15.0 mph - N/A   Clear
4:53 PM 90.0 °F 101.3 °F 75.9 °F 63% 29.89 in 10.0 mi South 13.8 mph - N/A   Clear
5:53 PM 91.9 °F 105.9 °F 77.0 °F 62% 29.88 in 10.0 mi South 15.0 mph - N/A   Clear
6:53 PM 90.0 °F 101.3 °F 75.9 °F 63% 29.88 in 10.0 mi South 11.5 mph - N/A   Clear
7:53 PM 87.1 °F 94.5 °F 73.0 °F 63% 29.88 in 10.0 mi South 9.2 mph - N/A   Clear
8:53 PM 84.0 °F 90.2 °F 73.0 °F 69% 29.89 in 10.0 mi South 9.2 mph - N/A   Clear
9:53 PM 82.9 °F 88.8 °F 73.0 °F 72% 29.91 in 10.0 mi South 10.4 mph - N/A   Clear
10:53 PM 82.9 °F 88.8 °F 73.0 °F 72% 29.92 in 10.0 mi South 10.4 mph - N/A   Clear
11:53 PM 82.0 °F 87.4 °F 73.0 °F 74% 29.92 in 10.0 mi SSW 11.5 mph - N/A   Clear